Weather History for Kendall, FL

Change the Weather History Date:

Monday, November 21, 2011

  Actual Average Record
Temperature  
Mean Temperature 76 °F -  
Max Temperature 82 °F 81 °F 84 °F (1993)
Min Temperature 71 °F 62 °F 46 °F (2006)
Cooling Degree Days 12    
Growing Degree Days 26 (Base 50)    
Moisture  
Dew Point 71 °F    
Average Humidity 79    
Maximum Humidity 93    
Minimum Humidity 67    
Precipitation  
Precipitation 0.06 in - - ()
Sea Level Pressure  
Sea Level Pressure 30.15 in    
Wind  
Wind Speed 8 mph (ESE)    
Max Wind Speed 18 mph    
Max Gust Speed 24 mph    
Visibility 9 miles    
Events Rain    
Averages and records for this station are not official NWS values.
T = Trace of Precipitation, MM = Missing Value Source: NWS Daily Summary

Daily Weather History Graph

Daily Weather History Graph

Search for Another Location

Airport:

Trip Planner

Search our weather history database for the weather conditions in past years. The results will help you decide how hot, cold, wet, or windy it might be!

Date:

Astronomy

Nov. 21, 2011 Rise Set
Actual Time 6:43 AM EST 5:31 PM EST
Civil Twilight 6:19 AM EST 5:55 PM EST
Nautical Twilight 5:51 AM EST 6:23 PM EST
Astronomical Twilight 5:23 AM EST 6:51 PM EST
Moon 2:40 AM EST (11/21) 2:36 PM EST (11/21)
Length of Visible Light 11h 36m
Length of Day
10h 47m
Waning Crescent, 18% of the Moon is Illuminated
Nov 21
Waning Crescent
Nov 25
New
Dec 2
First Quarter
Dec 10
Full
Dec 17
Last Quarter

Hourly Weather History & Observations

Time (EST) Temp. Heat Index Dew Point Humidity Pressure Visibility Wind Dir Wind Speed Gust Speed Precip Events Conditions
12:53 AM 73.9 °F - 72.0 °F 93% 30.17 in 10.0 mi East 4.6 mph - 0.00 in   Mostly Cloudy
1:53 AM 73.0 °F - 70.0 °F 90% 30.15 in 10.0 mi East 5.8 mph - N/A   Clear
2:53 AM 71.1 °F - 69.1 °F 93% 30.14 in 9.0 mi Calm Calm - 0.01 in   Clear
3:53 AM 72.0 °F - 70.0 °F 93% 30.14 in 4.0 mi Calm Calm - N/A   Clear
4:25 AM - - - N/A% 30.14 in 1.8 mi Calm Calm - N/A   Clear
4:33 AM - - - N/A% 30.14 in 3.0 mi Calm Calm - N/A   Clear
4:53 AM - - - N/A% 30.14 in 10.0 mi Calm Calm - N/A   Clear
5:53 AM - - - N/A% 30.16 in 6.0 mi Calm Calm - N/A   Haze
6:53 AM - - - N/A% 30.17 in 6.0 mi Calm Calm - N/A   Haze
7:53 AM - - - N/A% 30.19 in 10.0 mi Calm Calm - 0.01 in   Clear
8:53 AM 79.0 °F - 73.0 °F 82% 30.19 in 10.0 mi East 11.5 mph - N/A   Mostly Cloudy
9:05 AM 78.8 °F - 73.4 °F 83% 30.19 in 4.0 mi East 10.4 mph - N/A   Haze
9:53 AM 81.0 °F 85.2 °F 72.0 °F 74% 30.20 in 10.0 mi ESE 11.5 mph - 0.04 in   Scattered Clouds
10:37 AM 80.6 °F 84.6 °F 71.6 °F 74% 30.20 in 10.0 mi East 15.0 mph 24.2 mph N/A   Mostly Cloudy
10:46 AM 80.6 °F 85.4 °F 73.4 °F 79% 30.20 in 10.0 mi East 12.7 mph - 0.00 in Rain Light Rain
10:53 AM 80.1 °F 84.2 °F 73.0 °F 79% 30.19 in 10.0 mi East 13.8 mph - 0.00 in   Mostly Cloudy
11:16 AM 82.4 °F 87.2 °F 71.6 °F 70% 30.19 in 10.0 mi ESE 13.8 mph - N/A   Mostly Cloudy
11:45 AM 80.6 °F 84.6 °F 71.6 °F 74% 30.18 in 10.0 mi SE 16.1 mph - N/A   Scattered Clouds
11:53 AM 82.0 °F 86.7 °F 72.0 °F 71% 30.18 in 10.0 mi ESE 15.0 mph - N/A   Partly Cloudy
12:43 PM 82.4 °F 87.2 °F 71.6 °F 70% 30.15 in 10.0 mi ESE 12.7 mph 21.9 mph N/A   Mostly Cloudy
12:53 PM 82.9 °F 87.5 °F 71.1 °F 67% 30.15 in 10.0 mi ESE 16.1 mph 21.9 mph N/A   Mostly Cloudy
1:03 PM 82.4 °F 87.2 °F 71.6 °F 70% 30.14 in 10.0 mi East 16.1 mph - N/A   Mostly Cloudy
1:32 PM 80.6 °F 84.6 °F 71.6 °F 74% 30.12 in 10.0 mi ESE 12.7 mph 19.6 mph N/A   Mostly Cloudy
1:46 PM 80.6 °F 84.6 °F 71.6 °F 74% 30.12 in 10.0 mi SE 15.0 mph - N/A   Scattered Clouds
1:53 PM 80.1 °F 83.6 °F 71.1 °F 74% 30.12 in 10.0 mi ESE 15.0 mph 23.0 mph N/A   Partly Cloudy
2:25 PM 80.6 °F 85.4 °F 73.4 °F 79% 30.11 in 10.0 mi ESE 18.4 mph - N/A   Mostly Cloudy
2:38 PM 78.8 °F - 71.6 °F 78% 30.11 in 10.0 mi East 17.3 mph - N/A   Mostly Cloudy
2:53 PM 79.0 °F - 71.1 °F 77% 30.11 in 10.0 mi ESE 15.0 mph - N/A   Partly Cloudy
3:53 PM 79.0 °F - 71.1 °F 77% 30.12 in 10.0 mi ESE 13.8 mph - N/A   Mostly Cloudy
4:12 PM 78.8 °F - 69.8 °F 74% 30.12 in 10.0 mi ESE 15.0 mph - N/A   Scattered Clouds
4:21 PM 78.8 °F - 69.8 °F 74% 30.12 in 10.0 mi ESE 15.0 mph - N/A   Mostly Cloudy
4:28 PM 78.8 °F - 69.8 °F 74% 30.12 in 10.0 mi ESE 12.7 mph - N/A   Scattered Clouds
4:53 PM 78.8 °F - 69.8 °F 74% 30.12 in 10.0 mi ESE 12.7 mph - N/A   Scattered Clouds
5:53 PM 75.0 °F - 68.0 °F 79% 30.12 in 10.0 mi ESE 10.4 mph - N/A   Clear
6:53 PM 75.0 °F - 68.0 °F 79% 30.14 in 10.0 mi ESE 8.1 mph - N/A   Clear
7:53 PM 73.9 °F - 68.0 °F 82% 30.15 in 10.0 mi ESE 9.2 mph - N/A   Clear
8:53 PM 73.9 °F - 69.1 °F 85% 30.15 in 10.0 mi ESE 8.1 mph - N/A   Clear
9:53 PM 73.0 °F - 69.1 °F 87% 30.16 in 10.0 mi East 6.9 mph - N/A   Clear
10:53 PM 73.0 °F - 68.0 °F 84% 30.15 in 10.0 mi ESE 4.6 mph - N/A   Clear
11:53 PM 73.0 °F - 69.1 °F 87% 30.15 in 10.0 mi ESE 5.8 mph - N/A   Clear